Location: Unspecified
(0.0000°N, 0.0000°E)
Time: 14:04:14
(UTC+00:00)

Kosmos-1333 - Pass Details

Date: 19 May 2026
Orbit: 964 x 1010 km, 82.9° (Epoch: 5 June)

Event Time Altitude Azimuth Distance (km) Brightness Sun altitude
Exits shadow 20:34:03 18° 7° (N) 2,223 9.0 -36.6°
Drops below altitude 10° 20:35:29 10° 6° (N) 2,753 9.5 -36.9°
Sets 20:38:01 0° 6° (N) 3,706 10.3 -37.5°
